Date String (YYYY-MM-DD hh:mm:ss) UTC,Instrument flags,Ambient pressure (hPa),Sample flow (lpm),Bypass flow (lpm),Sample temperature (°C),Ambient temperature (°C),ASC tube jacket temperature (°C),LED temperature (°C),Box temperature (°C),Sample RH (%),Span deviation,Mass concentration (μg/m³),Mass concentration (μg/m³),Mass concentration (μg/m³)
DateTimeUTC,F1_M11,P_M11,Q1_M11,Q2_M11,T1_M11,T2_M11,T3_M11,T4_M11,T5_M11,U1_M11,ZSPAN_M11,X0_M11,X2_M11,X1_M11
2021-09-24 21:00:00,,0831.1,5.00,0.00,29.5,26.7,00.0,38.7,31.0,17.2,0000.0,0020.49,0006.13,0004.64
2021-09-24 21:01:00,,0831.1,5.01,0.00,29.5,27.1,00.0,38.7,31.1,17.3,0000.0,0020.76,0006.17,0004.64
2021-09-24 21:02:00,,0831.1,5.01,0.00,29.5,27.5,00.0,38.7,31.2,17.3,0000.0,0019.97,0006.18,0004.66
2021-09-24 21:03:00,,0831.0,4.99,0.00,29.6,27.9,00.0,38.7,31.3,17.2,0000.0,0020.45,0006.18,0004.68
2021-09-24 21:04:00,,0831.0,4.99,0.00,29.6,28.2,00.0,38.7,31.4,17.3,0000.0,0021.18,0006.25,0004.70
2021-09-24 21:05:00,,0831.0,5.00,0.00,29.6,28.4,00.0,38.7,31.5,17.2,0000.0,0020.03,0006.27,0004.72
2021-09-24 21:06:00,,0831.0,5.01,0.00,29.7,28.6,00.0,38.7,31.5,17.2,0000.0,0019.71,0006.27,0004.71
2021-09-24 21:07:00,,0831.0,5.00,0.00,29.7,28.8,00.0,38.7,31.6,17.2,0000.0,0018.51,0006.19,0004.71
2021-09-24 21:08:00,,0831.0,5.00,0.00,29.8,28.9,00.0,38.8,31.7,17.1,0000.0,0019.49,0006.16,0004.70
2021-09-24 21:09:00,,0831.0,5.00,0.00,29.8,29.1,00.0,38.8,31.8,17.0,0000.0,0020.10,0006.20,0004.70
2021-09-24 21:10:00,,0831.0,5.02,0.00,29.9,29.1,00.0,38.8,31.8,16.9,0000.2,0020.18,0006.18,0004.69
2021-09-24 21:11:00,,0831.0,4.99,0.00,29.9,28.2,00.0,38.8,31.6,16.9,0000.5,0020.44,0006.22,0004.68
2021-09-24 21:12:00,,0831.1,4.99,0.00,29.7,26.7,00.0,38.8,31.2,16.9,0000.6,0020.08,0006.24,0004.68
2021-09-24 21:13:00,,0831.1,5.01,0.00,29.7,26.7,00.0,38.8,31.1,17.0,0000.0,0019.98,0006.26,0004.68
2021-09-24 21:14:00,,0831.1,5.00,0.00,29.6,27.1,00.0,38.8,31.2,17.1,0000.0,0018.98,0006.22,0004.67
2021-09-24 21:15:00,,0831.0,4.99,0.00,29.6,27.4,00.0,38.8,31.3,17.1,0000.0,0018.89,0006.22,0004.66
2021-09-24 21:16:00,,0831.1,5.01,0.00,29.6,27.8,00.0,38.7,31.4,17.1,0000.0,0019.98,0006.22,0004.65
2021-09-24 21:17:00,,0831.0,5.00,0.00,29.7,28.1,00.0,38.7,31.5,17.0,0000.6,0020.08,0006.25,0004.67
2021-09-24 21:18:00,,0831.1,5.00,0.00,29.7,28.3,00.0,38.7,31.5,17.1,0000.0,0019.99,0006.31,0004.68
2021-09-24 21:19:00,,0831.0,5.01,0.00,29.7,28.5,00.0,38.7,31.6,16.9,0000.0,0020.20,0006.39,0004.71
2021-09-24 21:20:00,,0831.0,5.01,0.00,29.8,28.7,00.0,38.8,31.7,16.8,0000.0,0019.55,0006.41,0004.73
2021-09-24 21:21:00,,0831.0,4.99,0.00,29.8,28.9,00.0,38.8,31.8,16.8,0000.0,0019.30,0006.48,0004.78
2021-09-24 21:22:00,,0831.1,4.99,0.00,29.9,29.0,00.0,38.8,31.8,16.9,0000.0,0019.54,0006.49,0004.81
2021-09-24 21:23:00,,0831.1,5.01,0.00,29.9,29.1,00.0,38.8,31.8,16.8,0000.1,0020.15,0006.52,0004.84
2021-09-24 21:24:00,,0831.0,4.99,0.00,30.0,28.8,00.0,38.9,31.8,16.7,0002.2,0020.66,0006.51,0004.86
2021-09-24 21:25:00,,0831.0,4.99,0.00,29.8,26.7,00.0,38.8,31.2,16.8,0002.2,0021.27,0006.58,0004.89
2021-09-24 21:26:00,,0831.0,5.01,0.00,29.6,25.6,00.0,38.8,30.8,17.1,0001.4,0021.42,0006.62,0004.92
2021-09-24 21:27:00,,0830.9,5.01,0.00,29.5,25.9,00.0,38.8,30.9,17.0,0000.2,0022.50,0006.65,0004.96
2021-09-24 21:28:00,,0831.0,4.99,0.00,29.5,26.4,00.0,38.7,31.0,17.0,0000.0,0022.87,0006.64,0005.00
2021-09-24 21:29:00,,0831.0,5.00,0.00,29.5,26.9,00.0,38.7,31.1,17.1,0000.6,0023.29,0006.69,0005.04
2021-09-24 21:30:00,,0831.1,4.99,0.00,29.5,27.3,00.0,38.7,31.2,17.0,0000.0,0022.73,0006.75,0005.07
2021-09-24 21:31:00,,0831.1,4.99,0.00,29.5,27.7,00.0,38.7,31.3,17.1,0000.0,0023.12,0006.77,0005.11
2021-09-24 21:32:00,,0831.0,5.01,0.00,29.5,28.0,00.0,38.7,31.4,17.1,0001.7,0023.63,0006.82,0005.13
2021-09-24 21:33:00,,0831.1,4.99,0.00,29.6,28.2,00.0,38.7,31.4,17.1,0003.2,0023.79,0006.91,0005.16
2021-09-24 21:34:00,,0831.0,5.01,0.00,29.6,28.4,00.0,38.7,31.5,16.9,0003.0,0022.45,0006.98,0005.19
2021-09-24 21:35:00,,0831.1,5.00,0.00,29.7,28.6,00.0,38.7,31.6,16.9,0000.8,0022.67,0007.02,0005.21
2021-09-24 21:36:00,,0831.0,4.99,0.00,29.7,28.7,00.0,38.7,31.6,16.8,0000.0,0023.16,0007.05,0005.23
2021-09-24 21:37:00,,0831.1,5.01,0.00,29.8,28.9,00.0,38.7,31.7,16.8,0000.0,0023.08,0007.08,0005.27
2021-09-24 21:38:00,,0831.1,4.99,0.00,29.8,29.0,00.0,38.8,31.8,16.8,0002.2,0021.16,0007.13,0005.28
2021-09-24 21:39:00,,0831.1,5.01,0.00,29.9,29.1,00.0,38.8,31.8,16.7,0003.1,0021.70,0007.19,0005.30
2021-09-24 21:40:00,,0831.1,5.00,0.00,29.9,29.2,00.0,38.8,31.9,16.7,0002.8,0022.38,0007.17,0005.31
2021-09-24 21:41:00,,0831.1,5.00,0.00,30.0,29.0,00.0,38.8,31.8,16.5,0002.7,0023.85,0007.17,0005.31
2021-09-24 21:42:00,,0831.1,4.99,0.00,29.9,27.2,00.0,38.8,31.3,16.6,0002.6,0023.97,0007.21,0005.33
2021-09-24 21:43:00,,0831.1,5.00,0.00,29.8,26.7,00.0,38.8,31.2,16.7,0001.0,0023.99,0007.21,0005.34
2021-09-24 21:44:00,,0831.0,5.01,0.00,29.7,27.0,00.0,38.8,31.2,16.8,0001.6,0024.29,0007.15,0005.35
2021-09-24 21:45:00,,0831.1,5.00,0.00,29.7,27.3,00.0,38.8,31.3,16.9,0002.6,0025.73,0007.07,0005.37
2021-09-24 21:46:00,,0831.0,4.99,0.00,29.7,27.7,00.0,38.8,31.4,16.9,0002.8,0024.98,0007.04,0005.37
2021-09-24 21:47:00,,0831.0,5.00,0.00,29.7,28.0,00.0,38.8,31.5,16.8,0003.0,0025.40,0007.12,0005.40
2021-09-24 21:48:00,,0831.1,5.00,0.00,29.8,28.3,00.0,38.8,31.6,16.9,0003.0,0026.88,0007.24,0005.41
2021-09-24 21:49:00,,0831.1,5.00,0.00,29.8,28.5,00.0,38.8,31.7,16.8,0003.0,0027.19,0007.23,0005.42
2021-09-24 21:50:00,,0831.0,5.00,0.00,29.8,28.7,00.0,38.8,31.7,16.6,0003.1,0026.27,0007.22,0005.43
2021-09-24 21:51:00,,0831.1,5.01,0.00,29.9,28.8,00.0,38.8,31.8,16.6,0003.5,0024.89,0007.19,0005.45
2021-09-24 21:52:00,,0831.1,5.00,0.00,29.9,29.0,00.0,38.8,31.8,16.7,0004.1,0023.51,0007.17,0005.46
2021-09-24 21:53:00,,0831.1,5.00,0.00,30.0,29.0,00.0,38.9,31.9,16.7,0004.5,0024.18,0007.15,0005.43
2021-09-24 21:54:00,,0831.1,4.99,0.00,29.9,27.5,00.0,38.9,31.4,16.8,0004.4,0024.67,0007.16,0005.41
2021-09-24 21:55:00,,0831.0,4.99,0.00,29.7,25.7,00.0,38.8,30.9,17.0,0004.1,0024.90,0007.16,0005.37
2021-09-24 21:56:00,,0831.0,5.00,0.00,29.6,25.8,00.0,38.8,30.9,17.2,0004.4,0023.13,0007.16,0005.32
2021-09-24 21:57:00,,0831.0,5.01,0.00,29.5,26.3,00.0,38.8,31.0,17.2,0004.6,0023.17,0007.21,0005.31
2021-09-24 21:58:00,,0831.1,4.99,0.00,29.5,26.8,00.0,38.7,31.1,17.1,0004.9,0022.31,0007.14,0005.30
2021-09-24 21:59:00,,0831.2,5.01,0.00,29.5,27.2,00.0,38.7,31.2,17.1,0004.9,0020.85,0007.03,0005.27
